Location: Monroe
(41.9160°N, 83.3980°W)
Time: 16:33:03
(UTC-04:00)

Daily predictions for brighter satellites

Satellite Brightness Start Highest point End
(mag) Time Altitude Azimuth Time Altitude Azimuth Time Altitude Azimuth
Lacrosse 4 Rocket 4.4 20:23:00 10° WNW 20:24:51 13° NW 20:26:44 10° NNW
Cosmos 1818 4.0 20:19:47 10° NW 20:25:12 68° WSW 20:30:34 10° SSE
Cosmos 1470 3.7 20:24:09 10° SSE 20:27:33 27° E 20:30:56 10° NNE
Cosmos 2297 3.7 20:24:19 10° SSW 20:30:02 80° ESE 20:35:48 10° NNE
Cosmos 2123 Rocket 4.3 20:25:34 10° N 20:31:53 75° W 20:38:06 10° S
Cosmos 1408 Rocket 3.9 20:28:10 10° N 20:32:29 45° ENE 20:36:45 10° SSE
SWAS 4.4 20:29:37 10° SSW 20:33:53 68° ESE 20:38:10 10° NNE
H-2A R/B 2.9 20:32:35 10° SSE 20:36:25 57° ENE 20:40:18 10° N
Cosmos 2082 Rocket 2.2 20:33:46 10° NNW 20:39:30 89° ENE 20:45:09 10° SSE
Spot 2 Rocket 3.6 20:34:57 10° SSE 20:39:57 61° ENE 20:45:01 10° N
GPS 2-05 Rocket1 4.1 20:38:53 10° WSW 20:41:58 29° S 20:44:44 12° ESE
Resurs 1-3 3.7 20:38:12 10° SSE 20:42:29 56° ENE 20:46:47 10° N
Cosmos 1076 Rocket 3.4 20:39:09 10° N 20:43:25 86° E 20:47:39 10° S
Cosmos 1184 Rocket 4.2 20:44:07 10° NNE 20:46:49 22° ENE 20:48:38 15° ESE
SJ-6B 3.8 20:44:01 10° S 20:47:37 47° W 20:51:16 10° NNW
Cosmos 1340 Rocket 3.2 20:44:44 10° N 20:48:35 43° ENE 20:52:22 10° SSE
Cosmos 1802 Rocket 4.4 20:43:11 10° SSE 20:48:48 40° E 20:54:30 10° NNE
Helios 1A 3.6 20:46:15 10° SE 20:50:04 36° ENE 20:53:56 10° N
CZ-4B DEB 4.1 20:49:48 16° ESE 20:51:03 20° ENE 20:53:27 10° NNE
Meteor 1-4 Rocket 3.3 20:49:06 10° SSW 20:52:30 54° WNW 20:55:56 10° N
Cosmos 389 Rocket 4.0 20:52:52 17° E 20:53:18 17° E 20:55:39 10° NE
FengYun 1-2 T 4.5 20:47:50 10° S 20:53:24 76° WSW 20:59:04 10° NNW
SeaSat 1 2.5 20:51:53 10° SSE 20:56:49 89° WSW 21:01:47 10° NNW
MINOTAUR R/B 4.4 20:54:52 10° S 20:57:41 53° ESE 21:00:32 10° NNE
Envisat 3.7 20:54:14 12° SE 20:58:22 35° ENE 21:02:56 10° N
Cosmos 1356 Rocket 4.3 20:55:12 10° NNE 20:58:44 28° ENE 21:00:45 19° ESE
Cosmos 1674 2.6 20:55:39 10° N 20:59:27 88° W 21:03:16 10° S
Cosmos 1271 Rocket 2.7 20:56:39 10° S 21:00:39 74° E 21:04:40 10° NNE
Cosmos 1459 Rocket 4.0 20:56:21 10° S 21:02:28 62° E 21:08:31 10° NNE
ISS -2.9 20:59:21 10° WSW 21:02:31 47° NNW 21:05:42 10° NE
ERS-1 Rocket 4.3 21:03:10 18° E 21:05:11 22° ENE 21:09:02 10° NNE
SL-14 R/B 4.1 21:02:42 10° NNE 21:06:11 31° ENE 21:07:46 23° ESE
Cosmos 2061 Rocket 4.0 21:03:21 10° S 21:09:40 65° E 21:16:03 10° NNE
Geosat 4.2 21:05:12 10° NE 21:10:04 47° ESE 21:14:53 10° S
Cosmos 2173 Rocket 3.9 21:07:02 10° S 21:13:12 73° E 21:19:29 10° N
Cosmos-2242 3.1 21:10:14 10° SSW 21:14:28 76° W 21:18:45 10° N
Timation 2 Rocket 4.4 21:08:50 10° NNW 21:15:01 62° WSW 21:20:57 10° S
Cosmos 1626 4.2 21:14:26 10° NE 21:15:34 13° NE 21:15:34 13° NE
Cosmos 1328 4.0 21:14:02 10° N 21:17:54 49° E 21:19:50 26° SE
Cosmos 1766 Rocket 4.5 21:17:00 10° NNW 21:21:22 51° W 21:25:41 10° SSW
Cosmos 2369 Rocket 2.6 21:23:19 10° S 21:28:27 37° ESE 21:33:35 10° NE
H-2A R/B 4.1 21:28:33 12° ENE 21:28:39 12° ENE 21:30:37 10° NE
Cosmos 2221 3.8 21:33:23 25° ENE 21:33:23 25° ENE 21:36:02 10° NNE
SJ-11-01 4.2 21:30:10 25° SSE 21:32:50 66° ENE 21:37:31 10° N
Cosmos 2058 3.4 21:29:01 10° N 21:32:55 38° ENE 21:33:13 38° E
Lacrosse 5 4.3 21:30:01 10° WNW 21:33:31 18° NNW 21:37:02 10° NNE
GP-B 3.9 21:31:27 10° SSW 21:35:46 51° W 21:40:07 10° NNW
Cosmos 1833 Rocket 4.3 21:33:35 10° NW 21:38:33 33° WSW 21:43:30 10° SSW
SPOT 5 4.1 21:40:47 27° ENE 21:41:12 27° ENE 21:45:34 10° N
Meteor 1-29 3.0 21:37:59 10° N 21:41:29 78° WNW 21:44:58 10° SSW
Cosmos 1939 Rocket 2.8 21:40:21 40° SSE 21:41:46 75° ENE 21:45:55 10° N
Lacrosse 5 rocket 3.0 21:41:20 10° WNW 21:44:32 25° SW 21:46:14 18° SSW
CZ-3B DEB 4.1 21:38:16 10° W 21:44:59 25° NNW 21:48:46 10° NNE
Cosmos 1943 Rocket 4.1 21:48:53 14° NE 21:48:53 14° NE 21:49:45 10° NE
Cosmos 2016 Rocket 3.9 21:39:35 10° S 21:45:48 87° W 21:51:59 10° N
ATLAS 5 CENTAUR R/B 3.6 21:43:25 10° WSW 21:47:42 32° NW 21:52:22 10° NNE
USA 186 3.6 21:47:36 17° WSW 21:47:56 17° W 21:49:32 10° NW
Resurs 01 Rocket 3.9 21:44:53 10° SSW 21:48:28 24° W 21:52:05 10° NW
Cosmos 1743 Rocket 4.4 21:47:51 10° NNW 21:52:10 50° W 21:55:49 14° SSW
Cosmos 1500 Rocket 3.7 21:48:08 10° NNW 21:52:26 70° W 21:54:28 30° S
USA 215 3.5 21:48:23 16° ENE 21:53:25 44° SE 21:59:34 10° SSW
Helios 1B rocket 3.4 21:50:59 10° N 21:54:57 47° WNW 21:58:53 10° SW
Cosmos 1805 Rocket 4.5 21:52:27 10° N 21:55:43 34° NE 21:55:43 34° NE
Cosmos 1725 Rocket 3.8 21:50:46 10° S 21:56:58 80° E 22:03:11 10° N
Cosmos 2151 2.9 21:55:55 10° N 22:00:10 79° W 22:00:57 57° SSW
Cosmos 2251 Rocket 4.0 21:55:54 10° NNW 22:01:08 58° WSW 22:04:02 26° S
CZ-4C R/B 2.0 21:57:03 10° SSW 22:02:12 68° ESE 22:08:05 10° NE
MetOp-A 4.2 22:07:06 55° E 22:07:28 56° ENE 22:12:41 10° N
YAOGAN 6 3.3 22:12:14 52° NNW 22:12:14 52° NNW 22:15:07 10° NNW
Gblst 52 Del rocket 4.3 22:09:09 10° WSW 22:15:05 75° NNW 22:17:41 33° NE
ARGOS 3.5 22:17:29 48° NE 22:17:29 48° NE 22:22:14 10° N
OAO 2 Rocket 4.5 22:17:26 10° WSW 22:20:52 32° SSW 22:20:52 32° SSW
Tsikada Rocket 4.2 22:16:55 10° NNW 22:23:06 70° W 22:25:55 34° SSW
USA 267 4.3 22:24:10 28° ENE 22:26:22 35° NNE 22:32:10 10° NW
ISS -0.8 22:37:21 10° NW 22:38:42 15° NNW 22:38:42 15° NNW
ERS-1 Rocket 3.7 22:43:09 44° WSW 22:43:39 45° W 22:48:30 10° NNW
Cosmos 1626 4.5 22:48:32 10° NNW 22:50:16 23° NW 22:50:16 23° NW
USA 245 4.4 22:55:15 76° WNW 22:55:15 76° WNW 23:01:25 10° NNW
MOS 1-B Rocket 4.3 22:54:59 76° ESE 22:55:21 78° ENE 23:02:07 10° N
Cosmos 2233 Rocket 4.5 22:56:37 41° SW 22:58:24 55° WNW 23:04:26 10° N
H-2A R/B 3.1 23:09:10 42° N 23:09:10 42° N 23:12:34 10° NNW
Cosmos 2369 Rocket 3.7 23:07:27 10° WSW 23:12:29 33° WNW 23:17:32 10° N
Terra 3.9 23:18:31 22° N 23:18:31 22° N 23:20:15 10° N
ATLAS 3B R/B 4.2 23:20:37 25° NE 23:20:37 25° NE 23:23:19 10° NE
Lacrosse 5 4.3 23:15:28 10° NNW 23:18:19 15° N 23:19:04 14° NNE
SPOT 5 4.3 23:20:01 38° WNW 23:20:01 38° WNW 23:24:02 10° NNW
Cosmos 1943 Rocket 3.5 23:30:17 36° NNW 23:30:17 36° NNW 23:34:02 10° NNE
Cosmos 2227 Rocket 4.2 23:24:50 10° N 23:27:14 19° NNE 23:27:14 19° NNE
USA 215 3.6 23:30:08 10° NE 23:36:31 58° NW 23:42:54 10° WSW
CZ-4C R/B 4.2 23:46:50 10° W 23:51:20 25° NW 23:56:22 10° NNE
